Dewpoint
54 55 54 55 56 56 57 56 53 50 52 55 50 47 45 45 44 44 45 44 44 44 44 43 43 44 44 44 43 43 44 45 46 45 44 44 44 45
53 54 54 53 54 54 56 57 56 53 50 51 45 44 43 43 42 42 42 40 40 41 41 40 40 40 41 41 42 42 42 41 41 41 41 42 42 42
50 50 48 49 49 49 50 49 49 51 52 45 44 43 40 40 39 38 37 38 37 38 39 39 40 41 40 38 38 38 39 39 40 40 40 40 40 41
47 46 45 45 45 45 45 44 44 45 48 44 41 41 38 35 37 35 35 35 35 34 35 37 38 37 37 37 37 38 38 39 39 39 39 39 40 40
42 43 43 42 41 41 40 40 39 38 42 43 38 39 37 33 34 34 33 34 32 31 32 36 36 34 34 34 36 37 37 38 38 38 38 38 39 40
37 36 35 36 36 35 35 33 33 34 34 35 34 32 33 33 33 31 29 30 30 31 34 33 33 33 33 33 34 35 36 37 37 38 38 40 40 38
35 34 35 35 34 32 29 30 30 30 31 30 29 29 29 29 28 29 29 29 29 33 33 30 28 29 31 31 33 33 34 35 36 37 40 39 37 36
32 31 31 32 33 33 33 33 31 27 27 28 28 26 28 28 28 28 28 27 26 33 27 25 27 30 30 31 30 31 33 34 38 36 36 35 36 36
30 29 26 27 27 27 32 31 32 32 30 27 26 26 25 27 28 28 28 27 26 26 25 25 27 29 30 27 29 32 34 36 33 33 33 34 34 34
30 29 28 29 29 26 25 26 28 29 28 25 26 26 27 28 29 28 28 26 26 26 27 25 28 27 27 28 30 33 36 32 31 32 32 32 32 33
29 30 30 30 33 30 26 25 25 29 28 27 28 29 28 28 28 25 25 24 24 23 27 27 26 26 27 28 30 30 29 30 30 31 31 31 32 32
27 28 31 30 33 31 27 24 24 25 27 23 23 24 25 24 24 24 25 24 24 24 29 26 25 26 24 27 29 28 29 29 30 30 30 30 31 31
25 26 29 32 32 33 30 26 27 28 25 23 23 23 23 22 23 24 24 25 24 24 25 26 25 25 26 26 27 29 29 30 30 30 30 30 31 31
23 25 26 30 32 31 31 29 30 28 24 23 23 23 23 23 24 24 25 25 25 25 26 25 24 25 25 24 24 27 28 30 31 29 30 29 29 29
25 26 28 30 32 31 30 30 29 27 24 23 23 23 23 24 24 24 25 26 26 26 26 28 27 27 26 24 24 26 27 27 28 28 28 27 27 27
30 31 30 31 31 29 28 28 28 26 24 24 24 24 24 24 23 23 22 23 23 25 27 28 28 26 24 25 25 25 27 26 27 28 27 27 26 28
32 30 30 30 28 27 26 26 26 26 25 25 24 23 22 22 22 22 22 21 21 21 23 24 27 27 27 26 23 25 26 26 27 27 27 25 25 27
33 30 29 28 27 26 26 25 25 25 25 24 23 22 21 22 22 22 22 21 20 20 22 23 24 23 23 24 28 26 26 26 26 26 26 25 24 27
32 31 29 28 28 27 27 26 25 25 26 24 22 22 21 22 22 21 21 21 20 20 21 23 22 21 20 19 22 25 26 26 27 26 25 24 25 26
32 31 30 29 29 28 28 27 25 25 24 23 22 22 22 22 21 21 21 21 20 20 20 22 22 22 20 19 21 23 25 26 27 26 24 25 26 27
31 31 31 30 30 30 29 27 26 25 24 23 22 22 22 22 21 21 21 20 20 20 19 20 22 23 24 24 22 23 25 26 27 27 28 27 26 26
31 31 31 31 30 29 29 28 26 25 24 24 23 22 23 22 21 21 20 20 20 19 19 21 22 23 22 23 21 22 23 25 27 28 31 31 28 24
31 31 31 30 30 29 28 28 26 25 25 24 23 23 23 22 22 22 20 20 19 19 19 20 21 22 22 24 23 23 23 24 25 26 28 30 32 32
Wind_Speed
10 10 10 11 11 13 13 11 8 5 8 8 3 7 8 10 10 8 8 12 11 9 8 8 8 10 9 8 7 9 9 9 10 13 14 16 16 18
5 5 4 3 4 7 5 4 4 6 4 7 5 4 6 10 10 8 8 6 7 8 9 9 8 8 9 10 9 9 10 11 13 14 14 15 17 18
8 6 6 6 6 4 5 5 5 1 5 3 4 5 6 6 5 4 3 3 5 8 10 10 7 4 6 11 12 12 13 14 15 15 13 15 16 17
3 4 5 6 7 6 5 5 4 2 2 5 3 3 3 3 0 1 3 3 5 7 9 8 5 7 9 9 12 13 13 13 13 15 14 14 16 17
6 6 5 5 5 5 6 6 5 5 2 4 4 2 3 4 3 3 4 5 6 5 9 6 8 10 10 10 11 11 12 12 13 16 17 17 18 18
8 8 8 7 5 5 5 5 3 4 5 7 5 3 2 0 0 4 6 6 11 7 4 6 11 12 11 10 10 11 13 14 16 17 17 16 14 17
9 10 12 14 14 11 5 7 6 6 5 5 5 3 3 4 5 6 7 12 10 4 8 11 11 10 8 8 8 10 14 16 16 15 14 14 16 20
5 6 7 8 11 11 13 13 9 4 4 3 4 2 1 2 3 5 6 6 4 1 11 14 11 8 9 8 11 15 14 12 12 13 16 18 21 23
4 4 5 5 4 5 8 10 12 13 10 5 4 3 2 1 4 5 5 6 8 11 12 9 6 9 10 13 16 14 11 9 16 18 16 17 22 25
4 3 3 3 4 3 4 5 6 6 6 5 4 3 2 2 3 5 7 10 9 4 5 6 8 12 15 13 9 7 7 16 16 16 17 24 25 22
4 3 3 3 5 2 2 3 3 4 5 6 5 4 4 4 5 5 6 9 8 2 3 5 9 16 15 10 5 8 18 15 19 17 22 23 22 22
6 6 4 2 6 4 2 2 3 2 2 1 1 2 1 2 4 4 4 5 6 6 3 10 10 9 10 8 9 14 14 18 17 19 21 20 18 15
8 8 8 8 5 6 3 1 1 1 1 1 1 1 2 3 3 4 4 4 6 7 8 7 9 12 7 11 18 14 14 14 17 16 15 17 19 19
10 9 8 9 7 4 5 2 5 3 3 2 2 3 3 4 4 5 6 6 8 13 14 11 7 10 14 18 19 17 18 16 14 14 13 17 19 21
8 8 8 9 8 6 6 7 7 5 5 5 4 3 3 3 6 5 6 7 11 12 8 7 10 13 13 16 18 19 20 14 15 10 16 15 17 18
10 9 10 9 8 6 5 7 7 6 6 5 4 2 3 4 5 4 6 8 11 8 6 9 10 11 14 15 16 20 16 12 15 16 16 17 16 16
13 10 12 10 10 8 7 7 7 7 7 6 5 4 5 5 6 5 6 7 7 11 12 9 8 12 15 19 15 16 15 14 13 16 17 20 18 16
15 14 14 13 12 10 9 8 7 8 7 6 6 5 5 5 7 6 5 7 9 10 12 12 13 13 13 10 18 14 13 14 16 17 16 16 20 18
18 15 14 13 13 11 10 10 9 9 8 8 8 7 6 6 7 5 5 7 9 10 11 10 11 10 14 16 11 8 11 17 18 16 14 15 18 21
18 17 15 14 13 12 11 11 9 8 9 9 8 7 7 7 6 6 6 6 9 12 12 11 9 9 11 12 15 21 15 14 14 17 17 17 17 22
19 16 15 14 12 11 11 10 10 9 9 9 9 8 8 7 7 7 7 6 9 10 13 13 12 16 13 12 10 15 13 9 13 15 16 16 15 14
16 15 14 13 12 11 11 10 10 10 10 11 9 9 9 9 9 8 7 6 7 10 12 13 13 11 11 11 15 17 16 15 15 11 8 6 7 9
14 14 13 12 11 11 11 12 12 11 11 10 10 9 9 9 8 8 7 6 8 10 12 13 13 11 12 13 15 14 16 15 12 12 11 9 13 16
Wind_Direction
290 277 267 274 276 257 244 239 210 204 217 188 136 75 82 72 54 63 68 47 39 18 22 12 8 347 341 334 325 314 309 297 298 294 293 293 296 293
332 323 330 351 31 23 340 266 193 228 242 29 60 98 69 78 53 50 49 26 8 349 344 343 338 338 332 315 324 316 296 291 288 288 291 296 293 293
3 21 27 11 32 34 43 51 64 25 208 89 71 82 58 70 53 36 8 5 343 322 324 316 315 320 337 321 317 305 297 297 291 290 290 293 294 294
40 57 38 31 39 31 39 59 78 58 132 152 110 113 94 50 14 358 342 335 293 291 313 309 330 338 322 316 305 297 296 297 298 295 293 296 294 293
27 38 49 63 55 57 66 66 49 33 34 142 131 82 71 27 340 311 304 286 292 311 302 276 305 312 315 315 299 299 305 306 303 301 302 301 296 297
60 54 50 57 64 67 69 66 70 85 84 99 95 106 97 178 9 330 334 337 335 323 276 290 293 304 301 305 304 315 317 309 304 299 295 296 306 310
65 66 60 63 57 50 56 44 47 64 71 83 87 75 41 17 7 346 328 324 316 304 316 306 304 306 294 299 295 307 307 300 301 303 313 307 310 308
93 83 76 71 70 68 73 68 56 80 91 90 91 107 123 36 305 312 313 326 322 195 328 306 300 305 310 301 305 304 299 295 308 324 320 312 306 300
134 128 108 95 81 87 82 78 70 67 61 76 113 109 142 261 295 305 308 313 299 305 315 303 316 316 319 313 313 311 302 321 333 329 318 311 311 305
162 153 139 122 85 94 101 91 80 80 64 66 66 70 22 334 314 315 313 311 300 297 327 285 333 319 318 307 313 327 320 322 318 317 313 312 307 304
178 179 158 145 119 108 132 142 144 125 86 63 61 78 63 38 24 329 332 331 327 323 348 305 322 323 310 298 308 321 323 319 314 306 313 312 309 306
187 187 203 210 178 179 197 190 211 175 169 140 139 141 56 44 4 342 324 318 319 317 98 342 330 345 322 298 307 313 315 312 308 304 309 310 308 310
205 204 201 204 206 201 222 247 305 161 167 306 304 307 323 342 343 338 317 287 286 272 300 344 300 308 284 301 309 308 310 312 308 310 310 311 311 309
214 211 205 200 204 230 231 224 214 198 256 269 266 270 305 321 325 319 305 286 275 273 287 288 268 290 291 294 294 302 310 307 304 312 309 308 308 306
214 214 198 195 206 211 231 239 211 231 256 271 279 279 304 319 308 304 309 295 282 275 269 268 270 281 278 280 286 294 305 313 309 311 314 311 310 307
208 203 200 202 205 226 225 228 212 233 246 259 265 286 303 294 302 318 314 320 318 313 267 254 263 279 285 279 279 286 294 296 307 308 314 306 305 299
194 193 197 204 209 212 221 225 228 228 232 239 251 275 282 288 296 303 310 322 308 310 313 309 293 283 272 272 278 277 290 302 302 309 313 311 307 300
193 203 210 210 215 214 218 223 225 230 235 238 247 249 265 274 286 289 303 306 307 309 309 315 319 322 317 289 233 271 297 302 308 309 306 303 306 307
208 212 212 207 211 212 215 217 222 219 209 220 231 231 246 259 279 298 307 308 314 312 309 307 313 317 318 312 300 262 298 302 305 306 307 306 302 304
211 214 214 207 206 208 208 209 214 207 215 221 229 234 238 247 274 284 290 315 320 313 309 309 305 309 301 299 297 298 288 281 298 302 309 309 297 291
209 214 211 209 202 199 199 200 203 209 215 217 227 233 234 236 258 261 270 297 313 307 305 305 310 310 296 288 275 295 312 295 274 285 296 304 314 312
205 208 208 206 199 192 190 191 197 209 213 213 221 225 233 232 246 257 268 294 302 302 299 299 306 311 306 287 297 304 309 314 309 288 259 300 313 315
199 202 199 200 191 192 190 193 197 209 221 218 217 218 226 235 246 253 260 273 284 294 303 305 309 310 304 292 296 302 309 318 318 314 305 273 290 298